Data for 02/27/2017

Time Sea-Level Adjusted Pressure Absolute Pressure Temperature Relative Humidity Dew Point   
(mb) (inHg) (mb) (inHg) (C) (F) (%) (C) (F)
00:05 1004 29.65 833 24.6 -5 23 62 -11.2 11.9
00:10 1004 29.65 833 24.6 -5 22.9 62 -11.2 11.8
00:15 1004 29.65 833 24.6 -5.1 22.9 64 -10.9 12.4
00:20 1004 29.65 833 24.6 -5.3 22.4 65 -10.9 12.3
00:25 1004 29.65 833 24.6 -5.4 22.2 64 -11.2 11.9
00:30 1004 29.65 833 24.6 -5.5 22.2 63 -11.5 11.3
00:35 1004 29.65 833 24.6 -5.5 22.1 60 -12 10.4
00:40 1004 29.65 833 24.6 -5.4 22.2 64 -11.2 11.8
00:45 1004 29.65 833 24.6 -5.6 22 62 -11.8 10.8
00:50 1004 29.65 833 24.6 -5.6 21.9 63 -11.6 11.2
00:55 1004 29.65 833 24.6 -5.7 21.7 63 -11.6 11.1
01:00 1004 29.65 833 24.6 -5.7 21.7 62 -11.8 10.7
01:05 1004 29.65 833 24.6 -5.9 21.3 64 -11.6 11.1
01:10 1004 29.65 833 24.6 -6 21.2 63 -11.9 10.6
01:15 1004 29.65 833 24.6 -5.9 21.3 63 -11.9 10.6
01:20 1004 29.65 833 24.6 -5.9 21.3 63 -11.9 10.6
01:25 1004 29.65 833 24.6 -5.9 21.3 62 -12 10.3
01:30 1004 29.65 833 24.6 -5.8 21.5 59 -12.6 9.4
01:35 1004 29.65 833 24.6 -5.7 21.8 60 -12.2 10
01:40 1004 29.65 833 24.6 -5.6 21.8 61 -12.1 10.2
01:45 1004 29.65 833 24.6 -5.6 21.9 56 -13.1 8.4
01:50 1004 29.65 833 24.6 -5.2 22.6 58 -12.3 9.9
01:55 1004 29.65 833 24.6 -5.4 22.2 60 -12.1 10.2
02:00 1004 29.65 833 24.6 -5.5 22 57 -12.7 9.1
02:05 1004 29.65 833 24.6 -5.3 22.4 59 -12.1 10.3
02:10 1004 29.65 833 24.6 -5.2 22.6 57 -12.5 9.5
02:15 1004 29.65 833 24.6 -4.9 23.2 60 -11.5 11.3
02:20 1004 29.65 833 24.6 -5 23 61 -11.4 11.4
02:25 1004 29.65 833 24.6 -5.3 22.4 61 -11.7 11
02:30 1004 29.65 833 24.6 -5.5 22.1 63 -11.5 11.3
02:35 1004 29.65 833 24.6 -5.5 22 63 -11.6 11.2
02:40 1004 29.65 833 24.6 -5.7 21.8 62 -11.8 10.8
02:45 1004 29.65 833 24.6 -5.9 21.5 62 -12 10.3
02:50 1004 29.65 833 24.6 -6 21.2 61 -12.3 9.9
02:55 1004 29.65 833 24.6 -5.9 21.3 60 -12.5 9.5
03:00 1004 29.65 833 24.6 -5.9 21.3 61 -12.4 9.8
03:05 1004 29.65 833 24.6 -5.9 21.3 57 -13.1 8.4
03:10 1004 29.65 833 24.6 -5.6 21.9 58 -12.7 9.2
03:15 1004 29.65 833 24.6 -5.6 21.9 56 -13.1 8.5
03:20 1004 29.65 833 24.6 -5.3 22.5 57 -12.5 9.5
03:25 1004 29.65 833 24.6 -5.4 22.3 60 -12 10.4
03:30 1004 29.65 833 24.6 -5.7 21.7 62 -11.9 10.5
03:35 1004 29.65 833 24.6 -5.9 21.3 64 -11.7 10.9
03:40 1004 29.65 833 24.6 -6 21.2 65 -11.6 11.1
03:45 1004 29.65 833 24.6 -6.2 20.9 66 -11.6 11.2
03:50 1004 29.65 833 24.6 -6.3 20.7 68 -11.4 11.6
03:55 1004 29.65 833 24.6 -6.4 20.4 69 -11.2 11.8
04:00 1004 29.65 833 24.6 -6.6 20.2 70 -11.1 12
04:05 1004 29.65 833 24.6 -6.8 19.8 71 -11.1 12
04:10 1004 29.65 833 24.6 -7 19.4 73 -11 12.1
04:15 1004 29.65 833 24.6 -7.3 18.9 74 -11.2 11.8
04:20 1004 29.65 833 24.6 -7.6 18.3 75 -11.3 11.7
04:25 1004 29.65 833 24.6 -8.4 16.9 79 -11.4 11.5
04:30 1004 29.65 833 24.6 -8.9 16 81 -11.6 11.1
04:35 1004 29.65 833 24.6 -8.9 16 82 -11.5 11.3
04:40 1004 29.65 833 24.6 -8.7 16.3 79 -11.8 10.8
04:45 1004 29.65 833 24.6 -8.9 16.1 80 -11.8 10.8
04:50 1004 29.65 833 24.6 -8.9 15.9 80 -11.8 10.7
04:55 1004 29.65 833 24.6 -8.9 16.1 80 -11.6 11
05:00 1004 29.65 833 24.6 -8.5 16.6 79 -11.6 11.1
05:05 1004 29.65 833 24.6 -8.6 16.4 79 -11.7 10.9
05:10 1004 29.65 833 24.6 -8.9 16 79 -11.9 10.5
05:15 1004 29.65 833 24.6 -9.2 15.5 80 -12 10.4
05:20 1004 29.65 833 24.6 -9 15.8 79 -12 10.4
05:25 1004 29.65 833 24.6 -9 15.8 79 -12.1 10.3
05:30 1004 29.65 833 24.6 -9.2 15.4 79 -12.2 10.1
05:35 1004 29.65 833 24.6 -9.5 15 79 -12.4 9.7
05:40 1004 29.65 833 24.6 -9.8 14.4 81 -12.4 9.7
05:45 1004 29.65 833 24.6 -9.8 14.4 82 -12.3 9.9
05:50 1004 29.65 833 24.6 -9.6 14.6 81 -12.3 9.8
05:55 1004 29.65 833 24.6 -9.7 14.5 82 -12.2 10
06:00 1004 29.65 833 24.6 -9.6 14.7 82 -12.1 10.2
06:05 1004 29.65 833 24.6 -9.5 14.9 79 -12.4 9.6
06:10 1004 29.65 833 24.6 -9.4 15 78 -12.6 9.3
06:15 1004 29.65 833 24.6 -9.5 14.9 72 -13.7 7.3
06:20 1004 29.65 833 24.6 -9.5 14.9 71 -13.8 7.2
06:25 1004 29.65 833 24.6 -9.6 14.7 72 -13.8 7.2
06:30 1004 29.65 833 24.6 -9.7 14.5 72 -13.8 7.2
06:35 1004 29.65 833 24.6 -10.1 13.8 75 -13.8 7.2
06:40 1004 29.65 833 24.6 -10.3 13.5 74 -14 6.7
06:45 1004 29.65 833 24.6 -10.4 13.3 76 -13.9 6.9
06:50 1004 29.65 833 24.6 -10.6 12.9 80 -13.5 7.7
06:55 1004 29.65 833 24.6 -10.8 12.5 78 -13.9 6.9
07:00 1004 29.65 833 24.6 -11.4 11.5 83 -13.8 7.2
07:05 1004 29.65 833 24.6 -11.2 11.9 82 -13.6 7.5
07:10 1004 29.65 833 24.6 -11.2 11.8 79 -14.2 6.5
07:15 1004 29.65 833 24.6 -11.2 11.9 80 -13.9 7
07:20 1004 29.65 833 24.6 -11.4 11.4 82 -14 6.8
07:25 1004 29.65 833 24.6 -11.5 11.2 81 -14.1 6.6
07:30 1004 29.65 833 24.6 -11.3 11.7 78 -14.4 6.1
07:35 1004 29.65 833 24.6 -11.3 11.7 77 -14.5 6
07:40 1004 29.65 833 24.6 -11 12.2 77 -14.3 6.2
07:45 1004 29.65 833 24.6 -10.7 12.8 75 -14.3 6.2
07:50 1004 29.65 833 24.6 -10.5 13.1 74 -14.4 6.1
07:55 1004 29.65 833 24.6 -10.3 13.5 72 -14.4 6.1
08:00 1004 29.65 833 24.6 -9.7 14.6 70 -14.1 6.6
08:05 1004 29.65 834 24.63 -9 15.9 68 -13.8 7.2
08:10 1004 29.65 834 24.63 -8.2 17.2 66 -13.6 7.5
08:15 1004 29.65 834 24.63 -8 17.5 67 -13.1 8.4
08:20 1004 29.65 834 24.63 -7.1 19.1 64 -12.9 8.9
08:25 1005 29.68 834 24.63 -6.7 20 63 -12.7 9.2
08:30 1004 29.65 834 24.63 -6.2 20.8 59 -13 8.5
08:35 1004 29.65 834 24.63 -6.7 20 61 -13.1 8.5
08:40 1005 29.68 834 24.63 -7 19.4 62 -13.1 8.5
08:45 1005 29.68 834 24.63 -6.4 20.5 59 -13.2 8.3
08:50 1005 29.68 834 24.63 -5.9 21.4 59 -12.8 9
08:55 1005 29.68 834 24.63 -5.3 22.4 56 -12.7 9.1
09:00 1005 29.68 834 24.63 -4.7 23.5 55 -12.5 9.5
09:05 1005 29.68 834 24.63 -4.4 24.1 53 -12.5 9.5
09:10 1005 29.68 834 24.63 -5.7 21.7 64 -11.5 11.3
09:15 1005 29.68 834 24.63 -6.3 20.7 65 -11.8 10.7
09:20 1005 29.68 834 24.63 -6.1 21 64 -11.8 10.7
09:25 1005 29.68 834 24.63 -5.9 21.4 63 -11.9 10.6
09:30 1005 29.68 834 24.63 -6 21.2 65 -11.6 11.2
09:35 1004 29.65 834 24.63 -5.4 22.3 62 -11.6 11.2
09:40 1004 29.65 834 24.63 -5.6 21.9 64 -11.5 11.3
09:45 1004 29.65 834 24.63 -5.7 21.8 62 -11.9 10.7
09:50 1004 29.65 834 24.63 -5.1 22.8 61 -11.4 11.4
09:55 1004 29.65 834 24.63 -6.3 20.6 66 -11.7 11
10:00 1004 29.65 834 24.63 -5.5 22 63 -11.5 11.3
10:05 1004 29.65 834 24.63 -4.9 23.2 60 -11.5 11.2
10:10 1004 29.65 834 24.63 -4.9 23.1 61 -11.4 11.4
10:15 1004 29.65 834 24.63 -5.8 21.5 66 -11.2 11.8
10:20 1004 29.65 834 24.63 -6.1 20.9 67 -11.3 11.7
10:25 1004 29.65 834 24.63 -5.5 22 64 -11.3 11.7
10:30 1004 29.65 834 24.63 -5.5 22.1 64 -11.3 11.6
10:35 1004 29.65 834 24.63 -6.3 20.6 69 -11.2 11.9
10:40 1004 29.65 834 24.63 -6.1 21 66 -11.4 11.5
10:45 1004 29.65 834 24.63 -6.4 20.4 68 -11.3 11.6
10:50 1004 29.65 834 24.63 -5.9 21.3 65 -11.5 11.3
10:55 1004 29.65 834 24.63 -5.7 21.8 65 -11.3 11.6
11:00 1004 29.65 833 24.6 -5 23.1 60 -11.5 11.3
11:05 1004 29.65 833 24.6 -5.1 22.9 63 -11.1 11.9
11:10 1004 29.65 833 24.6 -5.2 22.6 63 -11.2 11.8
11:15 1004 29.65 833 24.6 -4.9 23.2 63 -11 12.3
11:20 1004 29.65 833 24.6 -4.2 24.4 59 -11 12.2
11:25 1004 29.65 833 24.6 -4 24.9 59 -10.9 12.4
11:30 1004 29.65 833 24.6 -3.7 25.4 58 -10.8 12.5
11:35 1004 29.65 833 24.6 -3.4 25.9 57 -10.7 12.7
11:40 1004 29.65 833 24.6 -3.4 25.9 56 -10.9 12.5
11:45 1004 29.65 833 24.6 -3.4 26 57 -10.8 12.6
11:50 1004 29.65 833 24.6 -4.5 23.9 61 -10.9 12.3
11:55 1004 29.65 833 24.6 -3.9 25 60 -10.6 12.9
12:00 1004 29.65 833 24.6 -4.1 24.7 62 -10.3 13.4
12:05 1004 29.65 833 24.6 -4.2 24.4 59 -11 12.1
12:10 1004 29.65 833 24.6 -4.5 23.9 63 -10.6 13
12:15 1004 29.65 833 24.6 -4.5 23.9 60 -11 12.1
12:20 1004 29.65 833 24.6 -4 24.8 59 -10.9 12.4
12:25 1004 29.65 833 24.6 -2 28.4 50 -11.2 11.9
12:30 1004 29.65 833 24.6 -1.7 29 49 -11 12.2
12:35 1004 29.65 833 24.6 -2.2 28 50 -11.3 11.7
12:40 1004 29.65 833 24.6 -1 30.2 50 -10.1 13.9
12:45 1004 29.65 833 24.6 -1.6 29.1 51 -10.4 13.3
12:50 1004 29.65 833 24.6 -1.2 29.8 51 -10 14
12:55 1003 29.62 833 24.6 -1.3 29.7 48 -11 12.2
13:00 1003 29.62 833 24.6 -2 28.3 52 -10.6 12.8
13:05 1003 29.62 833 24.6 -1.6 29.1 50 -10.7 12.8
13:10 1003 29.62 833 24.6 -1.2 29.9 48 -10.8 12.6
13:15 1003 29.62 832 24.57 -1.5 29.4 49 -10.8 12.5
13:20 1003 29.62 832 24.57 -1.2 29.8 45 -11.7 10.9
13:25 1003 29.62 832 24.57 -0.7 30.7 46 -10.9 12.3
13:30 1003 29.62 832 24.57 -0.7 30.8 45 -11.2 11.9
13:35 1003 29.62 832 24.57 -1 30.3 47 -10.9 12.5
13:40 1003 29.62 832 24.57 -0.2 31.7 42 -11.6 11
13:45 1003 29.62 832 24.57 -0.1 31.8 43 -11.3 11.6
13:50 1003 29.62 832 24.57 -0.1 31.9 38 -12.7 9.2
13:55 1003 29.62 832 24.57 -0 31.9 38 -12.6 9.3
14:00 1003 29.62 832 24.57 -0.7 30.8 46 -11.1 12.1
14:05 1003 29.62 832 24.57 -0.9 30.4 43 -11.9 10.5
14:10 1003 29.62 832 24.57 -0 31.9 42 -11.4 11.5
14:15 1003 29.62 832 24.57 -0.2 31.7 39 -12.5 9.5
14:20 1003 29.62 832 24.57 -0.4 31.3 38 -13 8.6
14:25 1003 29.62 832 24.57 -0.3 31.4 40 -12.4 9.7
14:30 1003 29.62 832 24.57 -0.1 31.8 37 -13.3 8.1
14:35 1003 29.62 832 24.57 -0.3 31.5 38 -13.1 8.4
14:40 1003 29.62 832 24.57 -0.3 31.4 42 -11.8 10.7
14:45 1003 29.62 832 24.57 -0.3 31.4 37 -13.5 7.7
14:50 1003 29.62 832 24.57 -0.4 31.3 41 -12.3 9.9
14:55 1003 29.62 832 24.57 -0.3 31.5 37 -13.2 8.2
15:00 1003 29.62 832 24.57 -0.5 31 40 -12.5 9.6
15:05 1003 29.62 832 24.57 -0.4 31.3 41 -12.1 10.2
15:10 1003 29.62 832 24.57 -0.2 31.6 40 -12.2 10.1
15:15 1003 29.62 833 24.6 0.1 32.1 38 -12.7 9.2
15:20 1003 29.62 833 24.6 -0.5 31.1 42 -11.9 10.6
15:25 1004 29.65 833 24.6 -0.3 31.4 42 -11.9 10.6
15:30 1003 29.62 833 24.6 -0.5 31 41 -12.3 9.9
15:35 1003 29.62 833 24.6 -0.6 30.9 42 -11.9 10.6
15:40 1003 29.62 833 24.6 -0.9 30.3 42 -12.4 9.7
15:45 1003 29.62 833 24.6 -1 30.2 41 -12.7 9.1
15:50 1003 29.62 833 24.6 -1.4 29.6 42 -12.8 9
15:55 1003 29.62 833 24.6 -1 30.2 40 -12.9 8.8
16:00 1003 29.62 833 24.6 -0.5 31.1 42 -12 10.3
16:05 1003 29.62 833 24.6 -0.3 31.5 41 -12 10.3
16:10 1003 29.62 833 24.6 -0.6 30.9 41 -12.4 9.7
16:15 1003 29.62 832 24.57 -1 30.3 40 -12.9 8.8
16:20 1003 29.62 833 24.6 -1.5 29.3 43 -12.6 9.3
16:25 1003 29.62 833 24.6 -1.5 29.4 40 -13.3 8.1
16:30 1003 29.62 833 24.6 -1.7 29 42 -13 8.6
16:35 1003 29.62 833 24.6 -1.7 29 42 -12.9 8.7
16:40 1003 29.62 833 24.6 -1.4 29.5 42 -12.6 9.4
16:45 1003 29.62 833 24.6 -1 30.2 40 -12.9 8.9
16:50 1003 29.62 833 24.6 -1.1 30.1 42 -12.4 9.6
16:55 1004 29.65 833 24.6 -1.2 29.9 42 -12.4 9.7
17:00 1004 29.65 833 24.6 -0.9 30.3 42 -12.3 9.9
17:05 1004 29.65 833 24.6 -0.8 30.6 41 -12.5 9.6
17:10 1004 29.65 833 24.6 -0.3 31.4 41 -12 10.4
17:15 1004 29.65 833 24.6 -0.1 31.8 40 -12.3 9.9
17:20 1004 29.65 833 24.6 -0.4 31.3 42 -11.7 10.9
17:25 1004 29.65 833 24.6 -0.1 31.8 41 -11.8 10.7
17:30 1004 29.65 833 24.6 0.3 32.6 41 -11.5 11.2
17:35 1004 29.65 833 24.6 0.4 32.7 38 -12.2 10
17:40 1004 29.65 833 24.6 0.4 32.7 38 -12.2 10
17:45 1004 29.65 833 24.6 -0.1 31.8 41 -11.9 10.5
17:50 1004 29.65 833 24.6 -0.4 31.3 41 -12.1 10.1
17:55 1004 29.65 833 24.6 -0.7 30.8 40 -12.6 9.4
18:00 1004 29.65 833 24.6 -0.9 30.4 41 -12.4 9.6
18:05 1004 29.65 833 24.6 -1.2 29.9 43 -12.3 9.9
18:10 1004 29.65 833 24.6 -1.5 29.4 45 -12 10.4
18:15 1004 29.65 833 24.6 -1.7 29 46 -11.9 10.5
18:20 1004 29.65 833 24.6 -1.9 28.6 46 -12.1 10.3
18:25 1004 29.65 833 24.6 -2 28.5 44 -12.5 9.4
18:30 1004 29.65 834 24.63 -1.9 28.5 44 -12.6 9.3
18:35 1004 29.65 834 24.63 -1.9 28.5 43 -12.8 8.9
18:40 1005 29.68 834 24.63 -1.9 28.6 44 -12.4 9.6
18:45 1005 29.68 834 24.63 -2.1 28.3 52 -10.7 12.8
18:50 1005 29.68 834 24.63 -2.4 27.6 59 -9.4 15.1
18:55 1005 29.68 834 24.63 -2.8 27 63 -8.8 16.2
19:00 1005 29.68 834 24.63 -3.2 26.3 66 -8.6 16.6
19:05 1005 29.68 834 24.63 -3.3 26 68 -8.4 16.8
19:10 1005 29.68 834 24.63 -3.4 25.9 68 -8.4 16.8
19:15 1005 29.68 835 24.66 -3.4 25.8 68 -8.5 16.7
19:20 1005 29.68 835 24.66 -3.7 25.4 70 -8.3 17
19:25 1005 29.68 835 24.66 -3.7 25.3 73 -7.9 17.8
19:30 1005 29.68 835 24.66 -3.8 25.2 77 -7.2 19
19:35 1005 29.68 835 24.66 -3.8 25.2 77 -7.2 19
19:40 1005 29.68 835 24.66 -3.8 25.1 77 -7.3 18.9
19:45 1005 29.68 835 24.66 -3.8 25.2 77 -7.2 19
19:50 1005 29.68 835 24.66 -4 24.8 78 -7.3 18.9
19:55 1005 29.68 835 24.66 -4.1 24.7 78 -7.4 18.6
20:00 1005 29.68 835 24.66 -4.2 24.4 78 -7.5 18.5
20:05 1005 29.68 835 24.66 -4.4 24.1 78 -7.7 18.2
20:10 1005 29.68 835 24.66 -4.5 24 78 -7.8 18
20:15 1005 29.68 835 24.66 -4.4 24 77 -7.8 17.9
20:20 1006 29.71 835 24.66 -4.4 24 78 -7.7 18.1
20:25 1006 29.71 835 24.66 -4.3 24.2 77 -7.8 17.9
20:30 1006 29.71 835 24.66 -4.3 24.2 77 -7.8 18
20:35 1006 29.71 835 24.66 -4.3 24.4 76 -7.8 17.9
20:40 1006 29.71 835 24.66 -4 24.7 75 -7.8 17.9
20:45 1006 29.71 835 24.66 -3.8 25.1 74 -7.8 17.9
20:50 1006 29.71 835 24.66 -3.8 25.2 75 -7.6 18.3
20:55 1006 29.71 835 24.66 -4.1 24.7 77 -7.5 18.4
21:00 1006 29.71 835 24.66 -4.3 24.3 78 -7.5 18.6
21:05 1006 29.71 835 24.66 -4.4 24.2 80 -7.4 18.7
21:10 1006 29.71 835 24.66 -4.5 23.9 81 -7.3 18.9
21:15 1006 29.71 835 24.66 -4.5 23.9 81 -7.2 19
21:20 1006 29.71 835 24.66 -4.4 24 82 -7 19.4
21:25 1006 29.71 835 24.66 -4.5 23.8 84 -6.9 19.6
21:30 1006 29.71 835 24.66 -4.5 23.9 84 -6.9 19.6
21:35 1006 29.71 835 24.66 -4.6 23.7 84 -6.8 19.7
21:40 1006 29.71 835 24.66 -4.7 23.5 86 -6.8 19.8
21:45 1006 29.71 835 24.66 -4.8 23.4 86 -6.8 19.8
21:50 1006 29.71 835 24.66 -4.8 23.3 86 -6.9 19.6
21:55 1006 29.71 835 24.66 -4.9 23.1 86 -6.9 19.5
22:00 1006 29.71 835 24.66 -5 23.1 86 -6.9 19.5
22:05 1006 29.71 835 24.66 -5 23 86 -7 19.4
22:10 1006 29.71 835 24.66 -5.1 22.8 85 -7.2 19
22:15 1006 29.71 835 24.66 -5.2 22.7 84 -7.5 18.5
22:20 1006 29.71 835 24.66 -5.2 22.6 83 -7.7 18.1
22:25 1006 29.71 835 24.66 -5.2 22.7 80 -8.1 17.4
22:30 1006 29.71 835 24.66 -5.2 22.6 80 -8.2 17.2
22:35 1006 29.71 835 24.66 -5.2 22.6 78 -8.5 16.7
22:40 1006 29.71 835 24.66 -5.2 22.6 78 -8.5 16.7
22:45 1006 29.71 835 24.66 -5.2 22.6 78 -8.4 16.8
22:50 1006 29.71 835 24.66 -5.3 22.5 79 -8.5 16.7
22:55 1006 29.71 835 24.66 -5.6 22 79 -8.6 16.5
23:00 1006 29.71 835 24.66 -5.7 21.8 74 -9.6 14.7
23:05 1006 29.71 835 24.66 -5.8 21.6 72 -10.1 13.8
23:10 1006 29.71 835 24.66 -5.8 21.6 70 -10.4 13.2
23:15 1006 29.71 835 24.66 -5.7 21.7 72 -10.1 13.9
23:20 1006 29.71 835 24.66 -5.7 21.8 70 -10.4 13.3
23:25 1006 29.71 835 24.66 -5.8 21.6 68 -10.7 12.8
23:30 1006 29.71 835 24.66 -5.9 21.4 69 -10.7 12.7
23:35 1006 29.71 835 24.66 -5.9 21.3 66 -11.4 11.5
23:40 1006 29.71 835 24.66 -5.9 21.3 64 -11.6 11
23:45 1006 29.71 835 24.66 -5.9 21.3 64 -11.7 10.9
23:50 1006 29.71 835 24.66 -6 21.2 63 -12 10.4
23:55 1006 29.71 835 24.66 -5.8 21.5 64 -11.7 11
24:00 1006 29.71 835 24.66 -5.9 21.4 65 -11.5 11.3